Showing default

HAISHAO 1, 62190

Orbit data source: Space-Track

HAISHAO 1, 62190 is a Chinese payload satellite in LEO that was launched on Wed, 04 Dec 2024 UTC via a KUAIZHOU-1A launch vehicle from the Xichang Space Center, China (XSC). Payloads include a variety of satellites, spacecraft, and rockets equipped with specific instruments for various scientific and technological missions. These include communications satellites like Starlink; space stations such as the ISS; scientific satellites like the Hubble; Earth observation satellites from companies like Planet Labs, Umbra, and HawkEye 360; GPS; miniature CubeSats for education and research; and military/defense satellites.

Loading next visibility...
HAISHAO 1 details
Identifier
62190, 2024-228A
Orbit
LEO
Last TLE update23 hours ago
Origin
Flag of CNXXYW (CN / PRC)
ManufacturerZHWK/IMICAS
MissionOperational spacecraft
Bus & MotorZK1, Unknown motor
Mass400 kg wet, 400 kg dry
Launch date (UTC)
2024-12-04 (2 months ago)
Launch vehicle
KUAIZHOU-1A
Launch site
Xichang Space Center, China (XSC)
Object type
Payload
Rocket body
Debris
Shape & HBRUnknown
Radar Cross SectionLarge (>1 m²)

Expand to show TLE details & history

TLE from 23 hours ago
0 HAISHAO 1
1 62190U 24228A   25024.81245724  .00208332  00000-0  29369-2 0  9991
2 62190  42.9903 164.1878 0105022  41.6529 319.2270 15.48961184  7928
Epoch: 2025-01-24T19:29Z
Definitive object data (Epoch: 2025-01-24T19:29:56.305Z)
Latitude-0.00006°
Longitude107.33288°
Altitude365.801 km
Speed7.722 km/s
True Right ascension10h 56m 45s
True Declination0° 00' 00"
Sunlit
Object was in full shadow at TLE epoch
Visualization TLE readout
Latitude-32.19232°
Longitude59.54832°
Altitude437.91 km
Speed7.644 km/s
Apparent Right ascension07h 47m 45s
Apparent Declination-35° 45' 04"
Sunlit
Object is in full shadow
Visualization observer readout
Local Sidereal Time19:50:16
Azimuth7.019° NNE
Elevation-85.805°
Doppler factor1
Orbital elements
Apogee altitude493.142 km
Perigee altitude350.315 km
Semi-major axis6,799.866 km
Eccentricity0.0105022
Inclination42.9903°
RAAN164.1878°
Arg. of periapsis41.6529°
True anomaly318.4332°
Mean anomaly319.227°
Eccentric anomaly318.83089°
Mean motion3.87073 °/min
BSTAR0.0029369
Orbital period93.01 mins
Loading maneuver chart data...
Loading historical data...
Loading historical data...
Loading historical data...
Loading historical data...
Loading historical data...
Loading historical data...
Loading historical data...
Other satellites on launch #228 in the year 2024 (2024-12-04 UTC)

HAISHAO 1 Visibility forecast

Observer location: undefined°, undefined

Span
Click to sort rows by Start time (UTC) header in descending order
Start Az.
Max El. time (UTC)
Max El. Az.
Max El.
End time (UTC)
End Az.
4 mins2025-01-26 11:56:29.605Z202.518° SW2025-01-26 11:58:29.605Z141.476° SSE24.47°2025-01-26 12:00:29.605Z92.322° ESE
4 mins2025-01-26 15:11:29.605Z299.321° NW2025-01-26 15:13:29.605Z26.956° NE34.173°2025-01-26 15:15:29.605Z75.828° E
4 mins2025-01-26 16:49:29.605Z278.018° WNW2025-01-26 16:50:29.605Z235.676° WSW42.911°2025-01-26 16:53:29.605Z117.431° SE
|